DW6723 Weather Reports


Display with metric or nautical units.
time (UTC)temp
F
wind
direction
speed
MPH
gust
MPH
rain 1hr
in
rain 24hr
in
rain mn
in
humidity
%
barometer
mb
20260503211548 52 344 9.0 20.0 0.00 0.00 0.00 39 1005.6
20260503210040 52 338 8.0 18.0 0.00 0.00 0.00 41 1005.5
20260503204544 52 338 17.0 26.0 0.00 0.00 0.00 42 1005.4
20260503203019 53 326 10.0 19.0 0.00 0.00 0.00 42 1005.1
20260503201521 53 326 12.0 27.0 0.00 0.00 0.00 41 1005.0
20260503200101 53 338 16.0 25.0 0.00 0.00 0.00 43 1005.0
20260503194600 54 339 11.0 29.0 0.00 0.00 0.00 44 1005.0
20260503193052 54 259 9.0 25.0 0.00 0.00 0.00 45 1005.1
20260503191536 53 338 15.0 25.0 0.00 0.00 0.00 45 1005.2
20260503190037 52 348 14.0 20.0 0.00 0.00 0.00 49 1005.2
20260503184517 52 315 10.0 20.0 0.00 0.00 0.00 49 1005.3
20260503183110 51 336 12.0 23.0 0.00 0.00 0.00 53 1005.4
20260503181558 51 305 15.0 21.0 0.00 0.00 0.00 51 1005.4
20260503180051 51 302 10.0 20.0 0.00 0.00 0.00 54 1005.3
20260503174540 50 344 12.0 17.0 0.00 0.00 0.00 55 1005.2
20260503173021 49 351 6.0 12.0 0.00 0.00 0.00 61 1005.4
20260503171532 48 343 4.0 11.0 0.00 0.00 0.00 68 1005.5
20260503081538 44 323 5.0 8.0 0.00 0.00 0.00 88 1007.8
20260503071553 44 320 6.0 9.0 0.00 0.00 0.00 87 1008.2
20260503054506 46 348 4.0 9.0 0.00 0.00 0.00 88 1008.8
20260503053005 46 355 6.0 11.0 0.00 0.00 0.00 88 1009.0
20260503051601 47 334 8.0 11.0 0.00 0.00 0.00 89 1009.5
20260503050055 47 338 6.0 9.0 0.00 0.00 0.00 92 1009.6
20260503044553 47 321 4.0 6.0 0.00 0.00 0.00 92 1009.7
20260503043034 47 322 2.0 5.0 0.00 0.00 0.00 91 1010.1
20260503041535 47 319 2.0 5.0 0.00 0.00 0.00 91 1010.1
20260503040014 47 254 1.0 3.0 0.00 0.00 0.00 91 1010.2
20260503034516 47 290 1.0 3.0 0.00 0.00 0.00 91 1010.1
20260503033101 47 321 1.0 4.0 0.00 0.00 0.00 91 1010.1
20260503031556 48 311 0.0 3.0 0.00 0.00 0.00 91 1010.2
20260503030044 48 342 2.0 4.0 0.00 0.00 0.00 91 1010.2
20260503024541 48 333 2.0 5.0 0.00 0.00 0.00 91 1010.2
20260503023040 48 29 2.0 4.0 0.00 0.00 0.00 91 1010.3
20260503021546 48 39 2.0 4.0 0.00 0.00 0.00 90 1010.3
20260503020047 48 64 1.0 2.0 0.00 0.00 0.00 90 1010.6
20260503014606 48 28 0.0 2.0 0.00 0.00 0.00 90 1010.8
20260503013040 48 26 1.0 3.0 0.00 0.00 0.00 90 1010.8
20260503011545 48 321 1.0 2.0 0.00 0.00 0.00 90 1010.7
20260503010018 49 20 2.0 5.0 0.00 0.00 0.00 89 1010.8
20260503004525 49 322 4.0 5.0 0.00 0.00 0.00 89 1010.8
20260503003001 49 355 4.0 5.0 0.00 0.00 0.00 88 1010.7
20260503001602 49 344 1.0 3.0 0.00 0.00 0.00 88 1010.6
20260503000059 49 360 2.0 4.0 0.00 0.00 0.00 87 1010.3
20260502234557 50 16 1.0 3.0 0.00 0.00 0.00 85 1010.3
20260502233056 50 53 1.0 3.0 0.00 0.00 0.00 84 1010.1
20260502231555 50 49 0.0 3.0 0.00 0.00 0.00 84 1010.1
20260502224607 50 338 4.0 10.0 0.00 0.00 0.00 82 1010.0
20260502223055 51 9 7.0 10.0 0.00 0.00 0.00 81 1010.0
20260502221550 52 9 6.0 8.0 0.00 0.00 0.00 78 1010.0
20260502214550 53 360 6.0 8.0 0.00 0.00 0.00 75 1009.8
20260502213100 54 345 7.0 9.0 0.00 0.00 0.00 70 1009.7